STARLINK-36962

Last updated on Sun Apr 12 2026 00:02:07 GMT+0000 (Coordinated Universal Time)

1 68269U 26055H 26101.51143830 .00224242 00000+0 11083-2 0 9994 2 68269 53.1575 172.7458 0001202 51.1134 308.9995 15.80915136 4874
UTC large
Height (km)
Speed (km/s)
/
Latitude / Longitude
Inclination (degrees)
Orbital Period (minutes)
Azimuth
Elevation
Range (km)
Doppler Factor

Next 0 passes for location: London (51.5072 / 0.1276)

Sorry there are no passes over London.
STARLINK-36962